Weather History for KCEZ - November, 2013

Change the Weather History Date:

Saturday, November 9, 2013

  Actual Average Record
Temperature  
Mean Temperature 41 °F 39 °F  
Max Temperature 62 °F 55 °F - ()
Min Temperature 20 °F 24 °F - ()
Degree Days  
Heating Degree Days 24 26  
Month to date heating degree days 232 216  
Since 1 July heating degree days 912 898  
Cooling Degree Days 0 0  
Month to date cooling degree days 0 0  
Year to date cooling degree days 667 426  
Moisture  
Dew Point 17 °F    
Average Humidity 47    
Maximum Humidity 77    
Minimum Humidity 17    
Precipitation  
Precipitation 0.00 in 0.05 in - ()
Month to date precipitation T 0.41  
Year to date precipitation 12.32 11.83  
Sea Level Pressure  
Sea Level Pressure 30.21 in    
Wind  
Wind Speed 5 mph (ENE)    
Max Wind Speed 12 mph    
Max Gust Speed 15 mph    
Visibility 10 miles    
Events      
T = Trace of Precipitation, MM = Missing Value Source: NWS Daily Summary

Daily Weather History Graph

Daily Weather History Graph

Search for Another Location

Airport or City:

Trip Planner

Search our weather history database for the weather conditions in past years. The results will help you decide how hot, cold, wet, or windy it might be!

Date:

Astronomy

Nov. 09, 2013 Rise Set
Actual Time 6:47 AM MST 5:08 PM MST
Civil Twilight 6:20 AM MST 5:36 PM MST
Nautical Twilight 5:49 AM MST 6:07 PM MST
Astronomical Twilight 5:18 AM MST 6:37 PM MST
Moon 12:27 PM MST (11/9) 11:40 PM MST (11/9)
Length of Visible Light 11h 15m
Length of Day
10h 20m
Waxing Crescent, 45% of the Moon is Illuminated
Nov 9
Waxing Crescent
Nov 9
First Quarter
Nov 17
Full
Nov 25
Last Quarter
Dec 2
New

Hourly Weather History & Observations

Time (MST) Temp. Windchill Dew Point Humidity Pressure Visibility Wind Dir Wind Speed Gust Speed Precip Events Conditions
12:53 AM 24.1 °F - 16.0 °F 71% 30.14 in 10.0 mi Calm Calm - N/A   Clear
1:53 AM 23.0 °F 17.0 °F 16.0 °F 74% 30.14 in 10.0 mi ENE 4.6 mph - N/A   Clear
2:53 AM 24.1 °F 18.2 °F 16.0 °F 71% 30.14 in 10.0 mi ENE 4.6 mph - N/A   Clear
3:53 AM 21.9 °F 13.4 °F 16.0 °F 78% 30.16 in 10.0 mi ENE 6.9 mph - N/A   Clear
4:53 AM 21.9 °F 14.5 °F 16.0 °F 78% 30.19 in 10.0 mi ENE 5.8 mph - N/A   Clear
5:53 AM 21.9 °F 17.2 °F 15.1 °F 75% 30.25 in 10.0 mi East 3.5 mph - N/A   Clear
6:53 AM 21.9 °F 13.4 °F 16.0 °F 78% 30.28 in 10.0 mi ENE 6.9 mph - N/A   Clear
7:53 AM 30.0 °F 25.2 °F 19.9 °F 66% 30.27 in 10.0 mi NE 4.6 mph - N/A   Clear
8:53 AM 39.9 °F 37.8 °F 21.9 °F 49% 30.25 in 10.0 mi East 3.5 mph - N/A   Clear
9:53 AM 50.0 °F - 21.9 °F 33% 30.22 in 10.0 mi ESE 4.6 mph - N/A   Clear
10:53 AM 55.0 °F - 19.9 °F 25% 30.21 in 10.0 mi SSW 3.5 mph - N/A   Clear
11:53 AM 60.1 °F - 17.1 °F 19% 30.18 in 10.0 mi Calm Calm - N/A   Clear
12:53 PM 61.0 °F - 15.1 °F 17% 30.16 in 10.0 mi NW 9.2 mph - N/A   Clear
1:53 PM 61.0 °F - 16.0 °F 17% 30.15 in 10.0 mi Variable 3.5 mph - N/A   Clear
2:53 PM 61.0 °F - 16.0 °F 17% 30.15 in 10.0 mi West 6.9 mph - N/A   Clear
3:53 PM 60.1 °F - 16.0 °F 18% 30.17 in 10.0 mi WNW 8.1 mph - N/A   Clear
4:53 PM 55.0 °F - 15.1 °F 21% 30.19 in 10.0 mi WNW 4.6 mph - N/A   Clear
5:53 PM 39.9 °F 37.8 °F 18.0 °F 41% 30.27 in 10.0 mi ESE 3.5 mph - N/A   Clear
6:53 PM 36.0 °F 29.0 °F 19.0 °F 50% 30.30 in 10.0 mi ENE 9.2 mph - N/A   Clear
7:53 PM 35.1 °F 30.1 °F 19.0 °F 52% 30.27 in 10.0 mi ENE 5.8 mph - N/A   Clear
8:53 PM 30.9 °F 25.2 °F 19.0 °F 61% 30.27 in 10.0 mi East 5.8 mph - N/A   Clear
9:53 PM 30.9 °F 25.2 °F 19.0 °F 61% 30.25 in 10.0 mi East 5.8 mph - N/A   Clear
10:53 PM 27.0 °F 20.5 °F 18.0 °F 69% 30.25 in 10.0 mi ENE 5.8 mph - N/A   Clear
11:53 PM 25.0 °F 18.1 °F 17.1 °F 72% 30.24 in 10.0 mi ENE 5.8 mph - N/A   Clear